Change the Weather History Date:

Saturday, May 17, 2014

  Actual Average (KJLN) Record (KJLN)
Temperature  
Mean Temperature 52 °F 67 °F  
Max Temperature 60 °F 78 °F 89 °F (2001)
Min Temperature 44 °F 57 °F 40 °F (1973)
Degree Days  
Heating Degree Days 13 2  
Month to date heating degree days 49  
Since 1 July heating degree days 4052  
Cooling Degree Days 0 4  
Month to date cooling degree days 52  
Year to date cooling degree days 106  
Growing Degree Days 2 (Base 50)    
Moisture  
Dew Point 45 °F    
Average Humidity 77    
Maximum Humidity 100    
Minimum Humidity 52    
Precipitation  
Precipitation 0.02 in 0.18 in 1.82 in (2002)
Month to date precipitation 3.22  
Year to date precipitation 15.46  
Sea Level Pressure  
Sea Level Pressure 30.13 in    
Wind  
Wind Speed 7 mph (East)    
Max Wind Speed 13 mph    
Max Gust Speed 17 mph    
Visibility 10 miles    
Events Rain    
T = Trace of Precipitation, MM = Missing Value Source: NWS Daily Summary

Daily Weather History Graph

Daily Weather History Graph

Search for Another Location

Airport or City:

Trip Planner

Search our weather history database for the weather conditions in past years. The results will help you decide how hot, cold, wet, or windy it might be!

Date:

Astronomy

May. 17, 2014 Rise Set
Actual Time 6:06 AM CDT 8:18 PM CDT
Civil Twilight 5:37 AM CDT 8:47 PM CDT
Nautical Twilight 5:01 AM CDT 9:23 PM CDT
Astronomical Twilight 4:23 AM CDT 10:02 PM CDT
Moon 11:20 PM CDT (5/17) 8:50 AM CDT (5/17)
Length of Visible Light 15h 10m
Length of Day
14h 12m
Waning Gibbous, 89% of the Moon is Illuminated
May 17
Waning Gibbous
May 21
Last Quarter
May 28
New
Jun 5
First Quarter
Jun 12
Full

Hourly Weather History & Observations

Time (CDT) Temp. Windchill Dew Point Humidity Pressure Visibility Wind Dir Wind Speed Gust Speed Precip Events Conditions
12:15 AM 44.6 °F 40.7 °F 42.8 °F 93% 30.14 in 7.0 mi NE 6.9 mph - 0.02 in Rain Light Rain
12:35 AM 44.6 °F 39.7 °F 42.8 °F 93% 30.14 in 10.0 mi East 9.2 mph - 0.02 in   Overcast
12:55 AM 44.6 °F 40.7 °F 41.0 °F 87% 30.13 in 10.0 mi East 6.9 mph - 0.02 in   Overcast
1:15 AM 44.6 °F 42.2 °F 42.8 °F 93% 30.13 in 10.0 mi East 4.6 mph - N/A   Overcast
1:35 AM 44.6 °F 40.7 °F 42.8 °F 93% 30.13 in 10.0 mi East 6.9 mph - N/A   Overcast
1:55 AM 44.6 °F 40.2 °F 41.0 °F 87% 30.12 in 10.0 mi East 8.1 mph - N/A   Overcast
2:15 AM 44.6 °F 40.7 °F 42.8 °F 93% 30.11 in 10.0 mi ESE 6.9 mph - N/A   Overcast
2:35 AM 44.6 °F 42.2 °F 42.8 °F 93% 30.11 in 10.0 mi East 4.6 mph - N/A   Overcast
2:55 AM 44.6 °F 42.2 °F 42.8 °F 93% 30.10 in 10.0 mi SE 4.6 mph - N/A   Overcast
3:15 AM 44.6 °F 40.2 °F 42.8 °F 93% 30.10 in 10.0 mi SE 8.1 mph - N/A   Overcast
3:35 AM 44.6 °F 41.4 °F 42.8 °F 93% 30.10 in 10.0 mi ESE 5.8 mph - N/A   Overcast
3:55 AM 44.6 °F 42.2 °F 42.8 °F 93% 30.11 in 10.0 mi SE 4.6 mph - N/A   Overcast
4:15 AM 44.6 °F 43.1 °F 42.8 °F 93% 30.12 in 10.0 mi East 3.5 mph - N/A   Overcast
4:35 AM 44.6 °F 41.4 °F 42.8 °F 93% 30.12 in 10.0 mi NE 5.8 mph - N/A   Drizzle
4:55 AM 44.6 °F 41.4 °F 42.8 °F 93% 30.12 in 10.0 mi ENE 5.8 mph - N/A   Overcast
5:15 AM 44.6 °F 40.7 °F 42.8 °F 93% 30.11 in 10.0 mi East 6.9 mph - N/A   Overcast
5:35 AM 44.6 °F 40.2 °F 44.6 °F 100% 30.10 in 10.0 mi ENE 8.1 mph - N/A   Overcast
5:55 AM 44.6 °F 39.2 °F 42.8 °F 93% 30.09 in 10.0 mi ENE 10.4 mph - N/A   Overcast
6:15 AM 44.6 °F 40.2 °F 42.8 °F 93% 30.10 in 10.0 mi ENE 8.1 mph - N/A   Overcast
6:35 AM 46.4 °F 42.4 °F 44.6 °F 93% 30.11 in 10.0 mi East 8.1 mph - N/A   Overcast
6:55 AM 46.4 °F 42.4 °F 42.8 °F 87% 30.12 in 10.0 mi East 8.1 mph - N/A   Overcast
7:15 AM 46.4 °F 42.4 °F 42.8 °F 87% 30.12 in 10.0 mi East 8.1 mph - N/A   Mostly Cloudy
7:35 AM 46.4 °F 41.9 °F 42.8 °F 87% 30.12 in 10.0 mi East 9.2 mph - N/A   Scattered Clouds
7:55 AM 48.2 °F - 42.8 °F 82% 30.13 in 10.0 mi ENE 9.2 mph - N/A   Scattered Clouds
8:15 AM 48.2 °F - 42.8 °F 82% 30.13 in 10.0 mi East 12.7 mph 17.3 mph N/A   Scattered Clouds
8:35 AM 50.0 °F - 41.0 °F 71% 30.14 in 10.0 mi East 9.2 mph 17.3 mph N/A   Clear
8:55 AM 50.0 °F - 41.0 °F 71% 30.15 in 10.0 mi East 8.1 mph - N/A   Clear
9:35 AM 51.8 °F - 42.8 °F 71% 30.16 in 10.0 mi East 8.1 mph - N/A   Clear
9:55 AM 51.8 °F - 42.8 °F 71% 30.16 in 10.0 mi ESE 10.4 mph - N/A   Scattered Clouds
10:15 AM 51.8 °F - 42.8 °F 71% 30.17 in 10.0 mi East 9.2 mph - N/A   Mostly Cloudy
10:35 AM 51.8 °F - 42.8 °F 71% 30.17 in 10.0 mi ESE 10.4 mph - N/A   Mostly Cloudy
10:55 AM 51.8 °F - 42.8 °F 71% 30.17 in 10.0 mi ESE 11.5 mph - N/A   Overcast
11:15 AM 53.6 °F - 44.6 °F 72% 30.17 in 10.0 mi ESE 9.2 mph - N/A   Overcast
11:35 AM 55.4 °F - 42.8 °F 63% 30.16 in 10.0 mi East 8.1 mph - N/A   Scattered Clouds
11:55 AM 55.4 °F - 42.8 °F 63% 30.16 in 10.0 mi East 6.9 mph - N/A   Clear
12:15 PM 57.2 °F - 42.8 °F 59% 30.16 in 10.0 mi East 8.1 mph - N/A   Scattered Clouds
12:35 PM 59.0 °F - 42.8 °F 55% 30.15 in 10.0 mi East 8.1 mph - N/A   Scattered Clouds
12:55 PM 59.0 °F - 44.6 °F 59% 30.15 in 10.0 mi NE 5.8 mph - N/A   Scattered Clouds
1:15 PM 60.8 °F - 44.6 °F 55% 30.15 in 10.0 mi NE 6.9 mph - N/A   Scattered Clouds
1:35 PM 59.0 °F - 44.6 °F 59% 30.14 in 10.0 mi East 8.1 mph - N/A   Scattered Clouds
1:55 PM 59.0 °F - 44.6 °F 59% 30.14 in 10.0 mi NE 6.9 mph - N/A   Mostly Cloudy
2:15 PM 60.8 °F - 44.6 °F 55% 30.13 in 10.0 mi ENE 8.1 mph - N/A   Mostly Cloudy
2:35 PM 60.8 °F - 44.6 °F 55% 30.13 in 10.0 mi NNE 5.8 mph - N/A   Mostly Cloudy
2:55 PM 60.8 °F - 42.8 °F 52% 30.12 in 10.0 mi SE 3.5 mph - N/A   Mostly Cloudy
3:15 PM 60.8 °F - 44.6 °F 55% 30.12 in 10.0 mi ESE 6.9 mph - N/A   Mostly Cloudy
3:35 PM 60.8 °F - 44.6 °F 55% 30.12 in 10.0 mi SE 3.5 mph - N/A   Overcast
3:55 PM 59.0 °F - 46.4 °F 63% 30.12 in 10.0 mi SSE 8.1 mph - N/A   Overcast
4:15 PM 59.0 °F - 46.4 °F 63% 30.12 in 10.0 mi SSE 5.8 mph - N/A   Overcast
4:35 PM 59.0 °F - 46.4 °F 63% 30.12 in 10.0 mi SE 5.8 mph - N/A   Overcast
4:55 PM 59.0 °F - 46.4 °F 63% 30.12 in 10.0 mi ESE 4.6 mph - N/A   Overcast
5:15 PM 59.0 °F - 46.4 °F 63% 30.12 in 10.0 mi SE 5.8 mph - N/A   Overcast
5:35 PM 59.0 °F - 46.4 °F 63% 30.12 in 10.0 mi East 4.6 mph - N/A   Overcast
5:55 PM 59.0 °F - 46.4 °F 63% 30.11 in 10.0 mi SE 4.6 mph - N/A   Overcast
6:15 PM 59.0 °F - 46.4 °F 63% 30.11 in 10.0 mi ESE 5.8 mph - N/A   Overcast
6:35 PM 59.0 °F - 46.4 °F 63% 30.11 in 10.0 mi East 3.5 mph - N/A   Scattered Clouds
6:55 PM 59.0 °F - 48.2 °F 67% 30.11 in 10.0 mi East 3.5 mph - N/A   Clear
7:15 PM 57.2 °F - 50.0 °F 77% 30.12 in 10.0 mi Calm Calm - N/A   Clear
7:35 PM 57.2 °F - 50.0 °F 77% 30.12 in 10.0 mi SE 4.6 mph - N/A   Clear
7:55 PM 55.4 °F - 50.0 °F 82% 30.13 in 10.0 mi ESE 4.6 mph - N/A   Clear
8:15 PM 55.4 °F - 48.2 °F 77% 30.13 in 10.0 mi ESE 3.5 mph - N/A   Clear
8:35 PM 55.4 °F - 50.0 °F 82% 30.14 in 10.0 mi SE 3.5 mph - N/A   Clear
8:55 PM 53.6 °F - 48.2 °F 82% 30.14 in 10.0 mi Calm Calm - N/A   Clear
9:15 PM 53.6 °F - 50.0 °F 88% 30.14 in 10.0 mi SE 4.6 mph - N/A   Clear
9:35 PM 53.6 °F - 48.2 °F 82% 30.15 in 10.0 mi Calm Calm - N/A   Clear
9:55 PM 53.6 °F - 50.0 °F 88% 30.15 in 10.0 mi SE 3.5 mph - N/A   Scattered Clouds
10:15 PM 53.6 °F - 48.2 °F 82% 30.16 in 10.0 mi Calm Calm - N/A   Scattered Clouds
10:35 PM 53.6 °F - 50.0 °F 88% 30.16 in 10.0 mi Calm Calm - N/A   Mostly Cloudy
10:55 PM 51.8 °F - 50.0 °F 94% 30.16 in 10.0 mi ESE 3.5 mph - N/A   Overcast
11:15 PM 51.8 °F - 48.2 °F 88% 30.16 in 10.0 mi Calm Calm - N/A   Mostly Cloudy
11:35 PM 51.8 °F - 48.2 °F 88% 30.16 in 10.0 mi ESE 3.5 mph - N/A   Scattered Clouds
11:55 PM 51.8 °F - 48.2 °F 88% 30.16 in 10.0 mi ESE 3.5 mph - N/A   Scattered Clouds